Theta_e
314 314 314 314 314 313 314 314 314 313 313 313 312 312 311 311 311 312 312 312 311 311 314 316 318 318 317 316 314 311 308 305 297 296 296 294 298 291 288 287 287 286 287
315 315 314 314 313 313 314 314 313 313 313 313 312 312 311 311 311 311 311 310 309 308 312 314 315 315 316 314 312 311 308 303 297 294 295 295 292 290 288 288 287 286 287
314 314 314 313 313 313 313 313 313 312 312 312 311 311 310 310 310 310 310 309 308 310 313 314 314 314 314 314 314 310 306 301 296 295 293 295 293 289 289 287 286 287 287
313 313 313 313 312 312 312 312 312 311 311 311 311 310 310 310 310 309 309 309 308 310 311 312 312 314 313 313 312 309 304 299 295 293 293 293 289 291 288 288 288 288 287
313 313 313 312 312 311 311 310 310 311 310 309 309 309 309 309 308 308 307 307 307 310 310 311 312 312 311 310 309 306 301 297 295 293 292 292 295 291 289 290 288 286 288
312 312 312 312 312 312 311 310 309 309 309 308 308 308 308 307 307 307 306 305 305 308 308 309 311 308 309 308 305 303 300 299 294 292 292 294 294 291 289 288 287 288 286
311 311 310 310 311 311 311 311 311 310 309 308 307 306 306 306 305 305 304 304 304 306 306 307 309 308 306 303 300 298 297 295 293 291 293 294 292 294 290 288 289 289 287
309 309 309 308 309 309 309 309 310 310 309 309 308 306 305 304 303 303 303 303 304 305 305 306 305 304 302 300 296 296 294 292 291 291 293 294 293 290 291 290 289 288 286
308 308 308 308 308 308 308 307 307 308 308 308 306 304 302 302 301 301 301 301 302 303 303 303 302 300 298 295 295 294 290 289 290 292 293 293 293 292 291 288 288 288 287
307 307 308 307 307 307 306 305 304 304 304 305 304 302 301 300 299 298 299 300 300 301 301 300 298 296 293 294 293 292 288 291 292 293 292 291 292 291 290 288 287 287 287
306 307 306 306 306 307 306 305 304 302 300 300 299 299 298 297 297 297 298 297 297 298 297 297 294 293 291 292 291 290 290 292 292 292 291 291 291 290 289 288 287 287 286
304 305 306 304 304 305 304 303 303 302 300 298 296 294 294 294 295 296 297 294 295 293 293 292 291 290 290 290 289 288 290 292 292 290 290 290 290 290 289 288 286 286 284
302 302 302 302 301 301 300 298 297 298 299 295 293 293 293 294 294 295 293 289 290 290 289 288 288 288 288 287 288 289 290 291 290 290 290 290 290 289 288 286 285 284 283
300 300 300 300 298 297 296 296 295 294 292 291 292 293 293 293 293 291 289 288 288 287 287 286 287 287 287 287 288 289 289 290 289 290 289 289 288 288 287 286 285 284 282
298 299 299 296 295 294 294 293 293 292 291 291 291 291 292 291 290 289 288 288 287 286 286 286 286 286 287 287 288 288 288 289 289 289 288 288 287 287 286 285 284 282 281
297 297 297 294 293 292 291 291 291 291 290 290 291 291 290 289 290 288 287 287 286 286 286 286 286 287 288 287 288 289 289 288 288 288 287 287 286 286 285 284 283 282 281
295 295 293 293 292 290 290 289 290 290 289 289 289 290 290 290 291 289 286 287 287 286 286 287 287 287 287 287 287 287 287 288 287 287 286 286 285 285 284 283 282 281 280
292 292 291 291 290 290 289 289 289 289 288 289 289 288 289 289 289 287 286 286 286 286 287 287 287 287 287 287 287 287 286 286 286 286 285 285 284 283 282 282 281 280 279
290 289 289 288 288 288 288 287 287 288 288 288 288 288 288 288 288 287 287 287 287 287 287 287 286 286 286 286 286 285 285 285 285 284 283 283 282 281 281 280 279 278 277
287 287 288 288 287 287 287 287 287 287 288 288 288 288 288 288 287 287 287 286 286 286 286 286 286 286 285 285 285 284 284 284 283 283 282 281 280 280 279 278 278 277 276
286 287 288 288 287 286 286 287 287 288 287 287 287 287 286 286 287 286 286 286 286 285 285 284 284 284 284 283 283 283 282 282 281 280 280 279 279 278 277 276 276 275 273
286 287 287 287 287 287 288 287 287 286 286 286 285 285 285 285 284 284 284 284 283 283 282 282 282 282 281 281 281 281 280 280 280 279 278 278 277 276 275 274 273 272 271
285 286 287 286 286 286 286 286 286 285 285 285 284 284 283 283 283 283 283 282 282 282 281 281 281 280 280 280 279 279 278 278 277 277 277 276 275 274 273 272 271 270 271
284 284 285 285 285 285 285 284 284 283 283 283 282 282 281 281 281 280 280 280 279 279 279 279 278 278 277 277 276 276 275 275 274 274 273 273 272 271 271 270 271 270 269
281 282 283 283 283 282 282 282 281 281 280 280 279 278 278 277 277 277 277 277 276 276 276 275 275 275 274 274 274 274 273 273 272 272 271 271 270 270 270 270 269 269 268
279 280 280 280 280 279 278 278 277 277 277 276 276 276 275 275 275 275 275 274 274 273 273 272 272 272 272 271 271 271 271 271 271 271 271 270 270 269 269 268 267 267 266
Wind_Speed
21 17 14 14 14 17 20 24 26 26 28 30 32 33 34 34 33 36 41 48 51 52 55 57 57 53 56 53 53 51 47 45 36 29 32 26 27 33 37 33 28 26 21
24 20 18 15 18 22 23 25 28 29 31 32 34 36 36 35 34 36 38 43 47 49 52 54 56 47 53 56 52 49 48 46 41 32 32 25 28 30 33 30 28 24 23
24 26 26 26 27 27 29 29 32 34 35 35 37 39 38 36 36 36 36 39 41 42 49 50 50 47 52 51 48 49 45 41 38 33 28 24 32 31 32 31 27 25 26
25 27 29 30 29 31 32 34 36 37 39 39 39 38 38 37 36 36 36 37 37 38 43 47 48 51 50 50 47 47 43 38 36 29 23 27 34 31 32 28 27 28 26
26 27 29 31 33 35 35 36 38 39 39 38 38 39 38 37 37 37 36 36 36 38 42 42 47 49 46 47 46 46 39 39 35 29 26 30 29 33 31 31 29 30 22
30 31 32 32 33 34 36 37 37 36 36 38 39 38 37 36 34 34 35 37 37 39 41 42 43 44 44 43 43 38 38 40 38 32 36 31 34 32 30 28 32 26 24
33 32 31 32 33 33 33 35 35 35 34 33 34 34 35 33 32 33 34 36 37 38 40 40 41 42 42 40 36 33 33 35 30 33 33 34 34 26 25 33 28 26 23
32 31 30 29 29 28 31 33 34 34 34 33 33 31 32 31 29 30 30 33 35 37 37 37 38 39 39 38 34 33 33 31 32 39 34 30 20 22 25 23 22 23 23
30 32 32 31 32 30 30 31 33 35 35 33 32 30 30 29 27 28 29 32 35 36 36 36 35 35 34 33 32 36 35 35 37 27 26 24 19 20 20 23 22 22 22
31 30 30 33 36 35 34 33 31 32 33 33 32 30 29 29 26 27 28 32 34 33 33 32 33 31 27 27 32 38 37 39 32 33 26 18 16 13 18 19 20 23 21
37 37 36 33 31 34 35 35 35 32 29 28 30 28 27 26 24 25 25 30 29 29 30 30 30 26 21 26 34 35 35 34 34 24 16 12 10 14 18 21 21 22 20
35 36 35 34 36 35 33 32 30 31 30 27 24 23 21 20 20 21 24 23 21 24 24 23 22 20 23 27 30 31 33 29 27 19 13 8 13 18 22 24 23 23 20
33 31 31 30 29 31 32 28 27 26 24 22 19 17 17 17 18 17 16 18 20 14 14 13 12 16 22 25 28 28 35 28 18 12 11 15 18 19 19 20 22 21 22
31 30 29 30 30 28 26 24 23 21 18 15 13 12 13 13 12 10 11 18 17 9 7 7 9 14 22 26 27 27 27 14 13 14 18 19 19 19 19 20 21 21 22
28 29 31 30 27 25 24 21 19 16 15 12 10 10 9 7 6 7 12 15 13 7 6 7 12 20 26 27 28 25 17 17 18 19 22 21 22 20 20 20 21 22 24
31 31 30 27 25 24 21 17 13 10 7 6 4 4 4 5 8 10 10 12 8 6 7 12 16 25 28 30 32 29 28 23 21 20 24 25 22 21 21 22 23 24 24
30 28 26 23 20 15 11 8 7 5 5 5 5 5 4 5 7 11 10 10 9 10 10 12 15 18 20 21 22 23 24 27 25 26 28 23 21 22 21 23 25 25 27
29 25 21 17 12 8 7 5 3 3 2 3 3 4 5 5 8 11 10 8 9 10 8 10 12 13 14 15 17 18 19 23 26 25 22 21 20 21 21 24 26 28 27
24 20 16 14 11 9 7 8 6 5 4 3 3 4 5 7 8 9 10 11 12 12 11 10 9 10 9 11 14 17 19 20 20 20 19 19 20 23 24 25 25 25 24
17 15 13 11 10 9 9 9 7 4 3 4 4 4 5 5 5 6 8 7 8 11 13 12 11 12 13 14 16 19 19 17 17 18 18 19 20 21 22 22 22 23 23
12 12 10 8 9 9 8 6 3 2 2 2 2 2 2 3 5 6 6 6 7 7 9 10 12 14 15 16 15 14 14 15 16 16 17 17 19 19 19 21 21 21 21
10 11 10 9 9 7 6 4 3 2 1 1 1 1 2 1 2 2 3 3 4 5 6 8 10 11 13 14 15 16 16 17 18 19 19 20 21 21 22 22 22 21 21
9 9 9 8 6 6 5 5 4 3 3 2 1 1 1 1 2 2 4 5 7 8 10 11 12 14 15 16 16 17 18 19 20 21 22 22 22 23 23 23 21 21 22
9 9 9 8 7 7 6 6 5 4 3 3 2 2 2 2 3 5 6 7 9 11 13 15 16 17 17 18 18 19 19 20 20 21 22 22 23 22 22 23 23 22 21
8 8 8 7 7 6 6 5 4 4 2 2 2 3 4 6 8 9 11 13 14 16 17 18 18 19 20 20 21 21 22 22 22 22 22 23 23 23 24 24 23 21 20
8 7 7 6 6 5 4 3 3 2 3 4 6 8 9 11 12 14 16 17 18 19 20 20 21 21 21 21 22 22 22 22 22 22 23 23 24 24 24 23 22 21 21
Wind_Direction
340 310 291 281 279 282 281 280 275 274 273 273 272 271 268 266 265 263 261 257 257 255 255 256 255 255 263 263 261 258 253 245 236 244 239 231 240 231 218 219 221 228 236
325 318 297 290 301 301 293 289 282 278 275 274 273 272 269 267 266 264 263 262 260 255 253 253 255 255 256 261 258 255 249 239 232 233 235 226 226 220 214 220 222 228 238
315 311 301 290 291 292 289 286 285 280 273 269 269 269 270 270 271 270 268 266 263 257 258 257 256 261 262 253 253 251 244 238 230 231 224 219 227 208 207 214 219 231 237
301 297 291 289 290 290 287 283 283 283 278 274 272 272 273 272 268 267 266 264 263 258 256 258 259 260 260 257 254 249 243 230 229 223 217 228 213 211 210 213 223 233 234
304 297 293 290 289 286 284 281 281 280 278 277 275 274 272 269 267 268 266 265 263 260 257 257 260 262 257 256 253 251 236 228 218 205 212 200 220 213 212 218 227 230 237
302 299 296 290 284 283 283 284 283 282 279 277 275 274 273 269 268 268 267 265 260 257 258 260 263 261 257 259 254 244 241 237 207 197 200 219 217 214 216 224 227 231 230
306 302 300 299 295 292 288 286 286 286 283 279 275 274 273 272 270 269 268 265 261 260 260 260 261 260 255 250 243 236 234 219 210 200 211 218 212 218 219 229 235 233 235
311 307 305 302 300 299 297 294 289 285 283 282 279 275 272 269 266 264 264 262 258 257 259 263 265 262 256 248 238 232 208 200 204 210 221 218 215 217 235 243 240 236 241
318 314 310 307 304 302 300 297 292 288 284 281 277 272 269 268 266 263 260 258 261 259 261 260 259 260 257 245 232 212 199 192 205 209 233 215 229 233 248 246 242 247 251
306 308 314 316 310 306 305 301 298 293 289 282 275 270 266 265 262 263 259 258 259 259 259 261 260 256 246 238 224 204 194 200 203 218 215 220 235 261 269 247 245 248 252
305 304 305 302 305 309 310 308 304 298 290 284 277 271 268 266 263 258 254 261 263 260 260 261 257 249 221 219 211 202 197 205 216 209 211 222 251 269 255 250 251 251 257
303 302 300 301 300 296 296 296 295 293 292 286 283 282 275 268 262 257 255 255 256 257 262 261 259 245 218 215 205 197 209 210 222 205 209 244 274 278 258 251 251 253 256
304 301 299 299 298 300 296 292 290 284 281 279 281 282 283 271 267 260 251 232 243 251 252 258 255 230 210 200 208 209 212 209 199 218 260 278 283 282 260 248 244 246 253
305 305 304 304 303 299 293 288 286 286 282 280 279 277 273 272 268 251 210 222 239 256 235 210 205 200 196 199 209 219 209 221 249 265 275 279 285 275 256 249 251 252 251
305 307 309 303 300 296 289 284 279 276 274 268 263 260 258 254 246 221 206 215 232 243 217 189 185 186 191 199 209 200 223 240 252 263 273 277 284 267 258 256 253 254 255
301 302 302 298 292 287 280 272 267 257 250 247 231 215 211 207 184 177 183 201 211 200 191 184 180 188 192 203 211 224 235 239 246 261 279 278 268 257 256 255 256 259 263
292 290 290 290 287 275 262 247 236 207 169 128 105 101 115 131 140 156 174 172 165 170 186 188 192 197 207 214 222 230 239 248 253 272 279 269 265 258 255 254 256 258 262
288 285 282 279 266 254 237 223 216 198 197 163 138 127 121 121 144 144 155 158 166 191 204 209 213 216 224 231 240 247 250 253 264 269 267 263 259 256 259 255 254 259 263
282 274 268 259 248 221 211 208 220 205 205 192 150 135 133 125 133 150 165 193 193 203 230 246 248 253 253 256 257 254 253 256 261 262 261 258 256 258 259 257 258 258 259
262 253 245 233 222 205 195 196 200 173 150 143 146 149 158 152 157 166 186 202 216 227 238 250 256 263 260 257 259 266 267 263 258 257 256 256 256 256 255 254 254 257 263
238 228 204 187 188 183 174 172 161 143 137 134 89 81 120 144 189 200 205 210 219 228 240 246 251 254 256 258 259 261 262 259 259 260 261 260 260 260 258 257 259 260 260
199 187 173 170 168 174 176 170 173 180 166 148 133 129 167 166 181 196 209 233 251 259 265 268 270 273 275 276 277 276 272 271 270 267 264 263 263 262 262 262 261 260 259
178 174 169 163 166 171 174 179 188 194 195 201 219 231 226 237 252 265 268 269 270 274 275 276 277 276 277 276 275 274 273 271 269 270 270 269 268 265 263 262 261 260 261
165 162 162 165 172 177 183 185 185 186 183 181 182 198 236 262 272 279 285 290 292 288 288 287 285 284 283 282 281 279 277 276 274 272 269 269 266 263 262 264 264 264 264
157 158 159 162 166 169 170 163 159 165 177 204 245 271 284 292 294 292 292 291 289 289 288 286 286 286 286 285 283 281 279 278 276 274 272 270 269 269 269 269 266 264 260
142 146 149 146 141 144 154 164 185 221 252 270 279 283 287 292 293 292 290 290 290 290 291 290 290 289 287 286 284 283 282 279 276 273 271 270 270 269 268 267 264 260 257